Home   Weather   Viseu   Past weeks

Flag for Portugal Past Weather in Viseu, Portugal — Yesterday and Last 2 Weeks

Now
41 °F

Quite cool.


Feels Like: 37 °F
Forecast: 35 / 58 °F
Wind: 6 mph from Northeast

Location: Viseu

Current Time: Jan 17, 2017 at 7:08:01 am

Latest Report: Jan 17, 2017 at 6:00 am


Visibility: N/A

Pressure: 30.26 "Hg

Humidity: 76%

Dew Point: 34 °F

Location of ViseuLocation

Past Weather in Viseu — Graph

°F

Viseu Temperature Yesterday

Maximum temperature yesterday: 58 °F (at 2:00 pm)
Minimum temperature yesterday: 35 °F (at 5:00 am)
Average temperature yesterday: 44 °F

High & Low Weather Summary for the Past Weeks

 TemperatureHumidityPressure
High64 °F (Jan 11, 3:00 pm)100% (Jan 3, 1:00 am)30.54 "Hg (Jan 3, 1:00 am)
Low31 °F (Jan 14, 7:00 am)27% (Jan 8, 12:00 pm)29.99 "Hg (Jan 2, 6:00 am)
Average45 °F75%30.35 "Hg
* Reported Jan 2 5:00 am — Jan 17 5:00 am, Viseu, Weather by CustomWeather, © 2017

Note: Actual official high and low records may vary slightly from our data, if they occured in-between our weather recording intervals... More about our weather records

Advertising

Viseu Weather History for the Previous 24 Hours

Scroll right to see more
 ConditionsComfort  
Time TempWeatherWind HumidityBarometerVisibility
5:00 am
Tue, Jan 17
41 °FQuite cool.6 mph78%30.27 "HgN/A
4:00 am42 °FQuite cool.5 mph77%30.28 "HgN/A
3:00 am40 °FQuite cool.5 mph80%30.30 "HgN/A
2:00 am42 °FQuite cool.7 mph74%30.29 "HgN/A
1:00 am41 °FQuite cool.5 mph80%30.31 "HgN/A
12:00 am43 °FQuite cool.7 mph75%30.30 "HgN/A
11:00 pm
Mon, Jan 16
42 °FQuite cool.5 mph80%30.32 "HgN/A
10:00 pm43 °FQuite cool.6 mph79%30.33 "HgN/A
9:00 pm43 °FQuite cool.6 mph76%30.33 "HgN/A
8:00 pm44 °FQuite cool.6 mph72%30.34 "HgN/A
7:00 pm43 °FQuite cool.5 mph70%30.34 "HgN/A
6:00 pm48 °FClear.3 mph63%30.32 "Hg25 mi
5:00 pm52 °FSunny.1 mph54%30.30 "Hg25 mi
4:00 pm55 °FSunny.1 mph47%30.28 "Hg25 mi
3:00 pm57 °FSunny.3 mph42%30.28 "Hg25 mi
2:00 pm58 °FSunny.2 mph46%30.29 "Hg25 mi
1:00 pm56 °FSunny.2 mph45%30.32 "Hg25 mi
12:00 pm54 °FSunny.3 mph49%30.36 "Hg25 mi
11:00 am51 °FSunny.3 mph53%30.39 "Hg25 mi
10:00 am46 °FSunny.6 mph62%30.42 "Hg25 mi
9:00 am41 °FQuite cool.5 mph72%30.44 "HgN/A
8:00 am37 °FChilly.7 mph80%30.45 "HgN/A
7:00 am36 °FChilly.5 mph84%30.45 "HgN/A
Weather by CustomWeather, © 2017

See weather overviewHow to use our weather pages